Lampedusa, Italy

3:45 PM CEST on September 22, 2017 (GMT +0200)
Lampedusa

Weather History for LICD - January, 2013

Change the Weather History Date:

Friday, January 18, 2013

  Actual Average Record
Temperature  
Mean Temperature 56 °F -  
Max Temperature 59 °F 60 °F 64 °F (2009)
Min Temperature 53 °F 53 °F 50 °F (2016)
Degree Days  
Heating Degree Days 9    
Growing Degree Days 6 (Base 50)    
Moisture  
Dew Point 44 °F    
Average Humidity 62    
Maximum Humidity 77    
Minimum Humidity 51    
Precipitation  
Precipitation 0.00 in 0.05 in - ()
Sea Level Pressure  
Sea Level Pressure 29.75 in    
Wind  
Wind Speed 19 mph ()    
Max Wind Speed 28 mph    
Max Gust Speed 41 mph    
Visibility 6.2 miles    
Events      
Averages and records for this station are not official NWS values.
T = Trace of Precipitation, MM = Missing Value Source: Averaged Metar Reports

Daily Weather History Graph

Daily Weather History Graph

Search for Another Location

Airport or City:

Trip Planner

Search our weather history database for the weather conditions in past years. The results will help you decide how hot, cold, wet, or windy it might be!

Date:

Astronomy

Jan. 18, 2013 Rise Set
Actual Time 7:17 AM CET 5:23 PM CET
Civil Twilight 6:49 AM CET 5:50 PM CET
Nautical Twilight 6:18 AM CET 6:21 PM CET
Astronomical Twilight 5:48 AM CET 6:52 PM CET
Moon 11:03 AM CET (1/18) No Moon Set
Length of Visible Light 11h 00m
Length of Day
10h 05m
Waxing Crescent, 45% of the Moon is Illuminated
Jan 18
Waxing Crescent
Jan 19
First Quarter
Jan 27
Full
Feb 3
Last Quarter
Feb 10
New

Hourly Weather History & Observations

Time (CET) Temp. Dew Point Humidity Pressure Visibility Wind Dir Wind Speed Gust Speed Precip Events Conditions
5:59 AM 53.6 °F 39.2 °F 58% 29.74 in 6.2 mi West 27.6 mph 41.4 mph N/A   Scattered Clouds
6:13 AM 53.6 °F 39.2 °F 58% 29.74 in 6.2 mi West 20.7 mph - N/A   Scattered Clouds
6:50 AM 53.6 °F 41.0 °F 62% 29.71 in 6.2 mi West 21.9 mph - N/A   Partly Cloudy
7:50 AM 53.6 °F 41.0 °F 62% 29.71 in 6.2 mi West 24.2 mph 35.7 mph N/A   Scattered Clouds
8:50 AM 55.4 °F 41.0 °F 58% 29.74 in 6.2 mi West 24.2 mph - N/A   Scattered Clouds
9:50 AM 55.4 °F 39.2 °F 54% 29.74 in 6.2 mi West 26.5 mph - N/A   Scattered Clouds
10:50 AM 57.2 °F 41.0 °F 55% 29.74 in 6.2 mi West 27.6 mph - N/A   Scattered Clouds
11:50 AM 57.2 °F 41.0 °F 55% 29.77 in 6.2 mi West 26.5 mph - N/A   Scattered Clouds
12:50 PM 59.0 °F 41.0 °F 51% 29.74 in 6.2 mi West 24.2 mph 39.1 mph N/A   Scattered Clouds
1:50 PM 59.0 °F 42.8 °F 55% 29.74 in 6.2 mi West 24.2 mph - N/A   Scattered Clouds
2:50 PM 57.2 °F 41.0 °F 55% 29.74 in 6.2 mi West 18.4 mph 31.1 mph N/A   Scattered Clouds
3:50 PM 59.0 °F 42.8 °F 55% 29.74 in 6.2 mi West 21.9 mph - N/A   Scattered Clouds
4:50 PM 57.2 °F 42.8 °F 59% 29.74 in 6.2 mi West 17.3 mph - N/A   Scattered Clouds
5:50 PM 57.2 °F 44.6 °F 63% 29.74 in 6.2 mi West 18.4 mph - N/A   Mostly Cloudy
6:50 PM 59.0 °F 46.4 °F 63% 29.77 in 6.2 mi West 21.9 mph - N/A   Mostly Cloudy
7:50 PM 59.0 °F 46.4 °F 63% 29.77 in 6.2 mi West 21.9 mph - N/A   Mostly Cloudy
8:50 PM 57.2 °F 48.2 °F 72% 29.80 in 6.2 mi West 11.5 mph - N/A   Mostly Cloudy
9:50 PM 57.2 °F 50.0 °F 77% 29.80 in 6.2 mi WNW 6.9 mph - N/A   Scattered Clouds
10:28 PM 57.2 °F 50.0 °F 77% 29.77 in 6.2 mi WNW 9.2 mph - N/A   Scattered Clouds
10:50 PM 57.2 °F 48.2 °F 72% 29.80 in 6.2 mi West 9.2 mph - N/A   Scattered Clouds
11:50 PM 57.2 °F 50.0 °F 77% 29.77 in 6.2 mi West 11.5 mph - N/A   Scattered Clouds